Vorticity
nan nan nan nan nan nan nan nan nan nan nan nan nan nan nan nan nan nan nan nan nan nan nan nan nan nan nan nan nan nan nan nan nan nan nan nan nan nan nan nan nan nan nan nan nan nan nan nan nan nan nan nan nan nan nan nan nan nan nan nan nan nan nan nan nan nan nan nan nan
nan 9 9 8 7 7 8 10 9 9 9 10 11 10 8 7 8 7 8 7 7 9 10 11 15 16 16 11 8 8 9 9 9 8 8 8 8 8 7 7 8 8 8 7 6 6 7 7 6 7 7 8 9 8 7 7 7 7 8 8 8 9 9 10 10 10 10 11 nan
nan 8 8 8 8 7 8 10 13 12 9 8 10 10 8 7 8 9 9 9 9 10 9 12 15 15 12 7 7 8 9 9 8 7 7 8 8 7 7 8 9 8 7 6 7 8 9 8 6 7 8 9 9 8 8 7 7 7 9 10 9 9 9 10 10 11 11 10 nan
nan 7 8 10 11 8 6 11 15 12 6 7 10 9 7 8 8 9 11 11 9 8 10 13 13 11 9 9 10 10 10 10 8 7 7 8 9 8 8 8 8 7 7 7 8 9 9 7 6 8 9 9 9 8 8 7 7 8 9 10 10 9 9 9 10 10 10 9 nan
nan 7 9 12 11 6 7 13 14 8 6 8 10 9 8 8 8 10 11 10 10 12 15 14 10 11 12 13 11 9 9 8 6 6 8 9 8 8 8 8 7 6 7 7 8 8 8 6 6 8 9 9 8 9 8 8 8 8 9 9 9 9 9 8 9 9 8 8 nan
nan 9 10 13 11 7 9 15 13 7 6 10 12 10 7 8 11 13 13 12 14 15 14 9 9 12 13 11 8 6 6 5 6 8 10 8 8 9 8 7 7 7 7 8 8 7 6 5 6 8 8 9 9 9 8 8 8 9 9 8 9 8 8 8 8 8 8 6 nan
nan 11 11 12 9 8 12 14 10 7 7 11 13 9 7 10 15 15 12 11 12 10 7 6 10 11 11 8 6 6 6 7 9 10 8 7 9 9 7 7 7 7 8 7 7 6 6 6 7 8 8 8 9 9 8 7 7 8 8 8 9 8 8 8 8 8 7 5 nan
nan 10 10 10 10 11 12 10 7 6 6 11 14 11 9 12 14 11 8 8 9 8 7 11 14 12 10 8 8 8 8 8 8 8 8 9 9 8 7 7 7 7 7 7 7 6 6 6 7 8 8 8 9 10 9 7 6 6 7 8 9 8 8 8 7 7 6 7 nan
nan 10 9 9 10 11 11 9 7 7 9 13 13 11 9 10 10 7 5 5 8 9 10 14 15 11 9 8 8 7 8 8 8 8 8 9 8 7 6 6 7 6 6 7 7 7 6 6 8 8 8 8 9 9 9 7 6 6 7 9 9 8 7 7 6 6 6 8 nan
nan 10 8 8 11 11 10 9 8 9 10 12 11 9 9 9 7 5 4 8 11 12 12 14 13 10 8 7 6 7 8 8 9 9 9 9 8 7 6 7 7 7 6 7 8 7 6 7 8 8 8 8 8 8 8 7 6 6 7 8 7 7 6 6 6 7 8 8 nan
nan 9 8 11 12 10 9 8 8 9 10 11 10 8 7 7 6 7 9 13 14 13 11 12 11 8 6 5 7 8 8 9 10 10 9 9 8 8 7 8 8 7 7 7 7 7 7 8 9 8 7 7 9 9 9 7 6 6 6 6 6 7 7 7 8 9 9 9 nan
nan 10 10 13 13 10 8 6 7 10 11 11 9 7 6 8 10 10 12 14 11 9 8 10 9 7 5 7 9 9 9 10 10 9 9 9 8 8 8 8 8 8 7 7 7 7 8 9 9 8 8 7 8 9 9 7 6 6 7 6 7 7 8 8 8 9 8 8 nan
nan 11 12 13 12 9 7 5 7 10 11 10 7 6 7 10 11 10 10 9 6 6 7 9 8 7 7 9 10 10 10 10 9 9 9 8 8 8 8 8 8 7 6 6 7 8 9 9 8 8 8 7 7 7 8 7 7 7 7 8 8 8 8 8 8 8 7 7 nan
nan 12 13 13 10 6 5 5 6 10 11 9 6 7 9 9 9 8 8 7 7 7 8 7 7 8 11 12 11 11 11 10 10 9 9 8 8 8 7 8 8 7 6 7 8 8 8 8 8 8 8 7 7 7 7 7 7 7 8 8 8 8 8 8 9 8 8 8 nan
nan 12 11 10 6 4 5 5 6 10 10 7 6 8 8 8 8 8 9 9 7 6 7 8 9 11 12 12 11 11 10 10 9 9 8 8 8 8 8 8 8 7 7 7 8 8 8 8 7 7 7 7 7 8 8 8 8 8 8 8 8 8 8 8 8 9 8 8 nan
nan 11 9 7 5 5 6 5 7 10 9 8 9 8 7 8 9 9 10 7 5 6 9 11 10 10 11 10 9 9 8 8 8 8 8 8 8 8 8 8 8 8 8 8 7 7 8 7 7 7 7 7 7 8 8 8 8 8 8 8 8 8 8 8 9 9 8 8 nan
nan 10 8 8 7 6 6 6 9 12 12 11 9 8 8 9 10 10 9 7 8 11 12 10 9 10 10 9 7 7 7 8 8 8 8 9 8 8 8 8 8 8 8 8 8 8 7 7 7 7 7 7 7 7 8 8 8 8 8 8 8 8 8 9 9 9 9 8 nan
nan 9 8 8 8 7 8 9 11 13 13 10 8 8 9 11 12 11 10 10 12 13 11 8 8 10 10 9 8 8 8 9 9 9 10 9 9 8 8 7 7 7 8 8 8 8 8 7 7 7 8 8 8 8 8 8 8 8 8 9 9 9 9 9 9 9 9 8 nan
nan 9 9 9 8 8 9 10 11 12 10 8 9 11 12 13 12 11 11 12 12 11 9 7 8 9 10 9 9 9 10 10 10 10 10 9 9 8 8 7 7 7 7 7 8 8 8 8 8 8 8 8 8 8 8 8 8 8 8 9 9 9 9 9 9 9 8 8 nan
nan 10 10 9 9 9 9 10 10 10 9 10 12 12 12 11 11 11 12 11 11 10 9 8 9 9 9 9 9 9 9 9 10 9 9 8 8 8 8 7 7 7 7 7 8 8 8 8 8 8 8 8 8 8 8 9 8 8 8 9 9 9 9 9 9 9 9 8 nan
nan 10 10 10 10 9 9 9 10 10 10 12 12 11 10 10 10 11 11 10 10 9 9 9 9 9 9 8 8 8 8 9 10 9 8 8 8 7 7 7 7 7 7 7 8 8 8 8 9 9 9 9 9 9 9 9 9 9 9 8 7 7 8 9 9 10 10 9 nan
nan 11 11 11 10 10 10 10 10 10 10 11 10 10 9 10 10 10 9 9 9 9 9 8 8 9 9 8 8 8 8 10 10 8 8 7 7 7 7 7 7 7 8 8 8 9 9 10 10 10 11 11 10 10 10 10 10 9 9 7 7 7 8 9 9 9 10 10 nan
nan 10 9 9 10 10 10 10 10 10 10 10 10 9 9 9 9 9 9 8 9 8 7 6 8 8 9 9 9 8 9 10 9 8 8 8 7 7 7 7 7 8 8 8 8 9 10 10 11 11 12 11 11 11 11 11 11 11 10 9 9 9 9 9 9 9 9 9 nan
nan 9 8 10 12 10 9 9 9 9 9 9 9 9 9 9 8 8 8 9 9 9 7 8 9 9 8 8 9 9 9 9 8 8 8 7 7 7 7 7 7 7 8 8 7 7 8 9 9 10 11 11 11 11 11 11 10 10 10 10 10 10 10 9 8 9 9 10 nan
nan 10 11 13 12 9 9 9 9 9 9 9 9 9 8 8 7 8 8 9 9 9 9 10 9 8 7 8 8 8 8 8 8 7 7 7 7 7 7 7 7 7 8 7 5 5 6 6 7 7 8 9 10 10 10 10 9 10 10 10 11 11 10 9 9 9 10 11 nan
nan 10 11 11 10 9 9 9 9 9 10 10 9 8 8 7 7 8 9 8 8 8 7 7 7 7 8 8 9 8 8 7 8 8 7 7 7 8 8 8 8 8 7 6 4 5 5 6 6 7 8 9 9 10 10 10 9 10 10 11 11 11 10 10 9 10 10 11 nan
nan 10 10 9 9 9 8 9 9 10 9 9 8 8 7 8 9 9 8 7 7 6 5 5 6 6 6 7 8 8 8 8 8 8 7 7 8 8 8 9 9 9 8 6 5 5 6 7 8 8 9 9 9 10 9 9 9 11 13 13 12 11 10 9 9 10 10 9 nan
nan 10 9 9 9 8 9 10 10 9 9 8 8 8 9 10 10 9 7 7 6 4 4 4 5 5 6 8 9 8 8 8 7 7 7 7 7 7 8 9 9 9 9 6 5 5 7 7 8 8 9 10 12 11 11 10 11 13 13 13 12 11 11 11 11 10 9 9 nan
nan 9 9 9 9 8 9 9 9 8 8 7 8 9 9 9 8 8 7 7 5 4 4 5 6 8 10 11 9 8 7 7 7 7 8 8 7 7 7 8 9 9 7 5 5 5 7 7 8 8 8 11 12 12 11 11 11 11 12 12 10 10 9 9 8 8 8 9 nan
nan 9 9 9 9 8 8 8 8 7 7 7 9 9 8 8 8 7 7 6 5 6 8 10 12 13 13 11 8 7 7 7 7 8 8 7 7 7 7 8 9 8 6 4 4 5 6 7 8 8 8 10 12 12 11 9 8 9 10 9 8 7 7 7 7 8 8 8 nan
nan 10 10 9 8 8 8 8 8 8 8 10 10 8 7 8 7 7 6 6 7 9 11 13 13 12 10 9 8 8 8 8 8 8 8 7 6 7 7 8 9 9 7 4 4 5 6 7 8 8 7 10 14 13 10 8 8 9 9 7 6 7 8 10 10 9 8 7 nan
nan 9 8 8 7 8 8 8 8 9 10 10 8 8 7 7 7 7 8 8 9 10 10 11 10 9 8 8 8 9 8 8 8 7 7 7 7 7 8 9 11 9 7 4 4 5 6 7 8 7 7 11 14 12 10 9 11 11 10 8 8 9 9 9 8 8 8 9 nan
nan 8 8 8 8 8 8 8 8 8 8 8 7 7 7 7 8 8 8 8 9 9 9 9 8 8 8 8 8 8 7 7 7 7 6 6 6 7 8 10 12 10 7 3 3 5 6 7 7 7 7 12 17 15 12 11 12 12 11 10 10 10 10 9 8 9 9 11 nan
nan 8 8 8 8 8 8 8 8 8 8 7 8 8 8 8 8 8 8 9 9 9 8 8 8 8 8 9 9 8 7 7 7 7 6 6 6 7 8 10 11 10 7 3 3 4 6 7 7 7 9 15 19 16 13 12 12 10 9 9 9 10 10 10 10 10 10 11 nan
nan 9 9 8 8 8 8 8 8 8 8 8 7 7 7 8 8 8 8 9 9 9 9 9 8 8 9 9 9 9 8 8 7 6 6 6 7 8 8 10 11 10 6 3 2 4 5 6 7 8 12 19 20 15 12 13 13 11 10 10 10 10 11 11 12 12 12 12 nan
nan 9 8 8 9 9 8 8 8 8 8 8 7 7 7 7 8 8 9 9 9 9 9 8 8 9 9 8 8 8 8 8 7 7 6 6 7 8 8 10 11 10 5 3 3 4 4 5 7 9 15 20 18 13 12 14 14 12 11 12 12 11 12 13 13 12 12 12 nan
nan 9 8 8 8 8 8 7 8 8 8 7 6 7 7 7 7 8 8 8 8 8 8 8 9 8 8 7 7 8 8 7 7 7 7 7 7 7 8 9 10 9 7 5 4 4 4 5 7 10 16 18 14 12 13 14 12 11 12 13 13 12 13 14 13 13 11 9 nan
nan 8 8 8 8 8 8 8 8 8 7 7 6 7 7 7 7 8 8 8 8 9 8 8 8 8 8 7 7 7 7 7 8 8 8 7 7 7 8 8 9 9 8 7 5 4 4 5 6 10 15 15 13 13 14 13 10 10 11 13 12 12 14 14 13 11 8 6 nan
nan 9 8 9 9 9 9 9 8 8 7 7 8 8 8 7 8 9 9 9 9 9 9 9 9 8 8 7 7 7 7 7 7 7 7 7 8 8 8 7 8 8 8 7 6 5 5 5 6 9 14 16 15 15 14 11 10 10 11 12 12 11 12 12 11 9 6 4 nan
nan 9 9 9 9 9 9 9 8 7 7 8 9 8 7 8 9 9 9 9 10 10 9 9 9 8 8 7 7 8 8 7 7 7 7 7 8 8 7 7 7 7 8 8 7 6 6 6 7 10 16 18 15 14 13 11 10 11 11 12 11 11 11 10 10 9 7 6 nan
nan nan nan nan nan nan nan nan nan nan nan nan nan nan nan nan nan nan nan nan nan nan nan nan nan nan nan nan nan nan nan nan nan nan nan nan nan nan nan nan nan nan nan nan nan nan nan nan nan nan nan nan nan nan nan nan nan nan nan nan nan nan nan nan nan nan nan nan nan
CAPE
nan nan nan nan nan nan nan nan nan nan nan nan nan nan nan nan nan nan nan nan nan nan nan nan nan nan nan nan nan nan nan nan nan nan nan nan nan nan nan nan nan nan nan nan nan nan nan nan nan nan nan nan nan nan nan nan nan nan nan nan nan nan nan nan nan nan nan nan nan
nan nan nan nan nan nan nan nan nan nan nan nan nan nan nan nan nan nan nan nan nan nan nan nan nan nan nan nan nan nan nan nan nan nan nan nan nan nan nan nan nan nan nan nan nan nan nan nan nan nan nan nan nan nan nan nan nan nan nan nan nan nan nan nan nan nan nan nan nan
nan nan nan nan nan nan nan nan nan nan nan nan nan nan nan nan nan nan nan nan nan nan nan nan nan nan nan nan nan nan nan nan nan nan nan nan nan nan nan nan nan nan nan nan nan nan nan nan nan nan nan nan nan nan nan nan nan nan nan nan nan nan nan nan nan nan nan nan nan
nan nan nan nan nan nan nan nan nan nan nan nan nan nan nan nan nan nan nan nan nan nan nan nan nan nan nan nan nan nan nan nan nan nan nan nan nan nan nan nan nan nan nan nan nan nan nan nan nan nan nan nan nan nan nan nan nan nan nan nan nan nan nan nan nan nan nan nan nan
nan nan nan nan nan nan nan nan nan nan nan nan nan nan nan nan nan nan nan nan nan nan nan nan nan nan nan nan nan nan nan nan nan nan nan nan nan nan nan nan nan nan nan nan nan nan nan nan nan nan nan nan nan nan nan nan nan nan nan nan nan nan nan nan nan nan nan nan nan
nan nan nan nan nan nan nan nan nan nan nan nan nan nan nan nan nan nan nan nan nan nan nan nan nan nan nan nan nan nan nan nan nan nan nan nan nan nan nan nan nan nan nan nan nan nan nan nan nan nan nan nan nan nan nan nan nan nan nan nan nan nan nan nan nan nan nan nan nan
nan nan nan nan nan nan nan nan nan nan nan nan nan nan nan nan nan nan nan nan nan nan nan nan nan nan nan nan nan nan nan nan nan nan nan nan nan nan nan nan nan nan nan nan nan nan nan nan nan nan nan nan nan nan nan nan nan nan nan nan nan nan nan nan nan nan nan nan nan
nan nan nan nan nan nan nan nan nan nan nan nan nan nan nan nan nan nan nan nan nan nan nan nan nan nan nan nan nan nan nan nan nan nan nan nan nan nan nan nan nan nan nan nan nan nan nan nan nan nan nan nan nan nan nan nan nan nan nan nan nan nan nan nan nan nan nan nan nan
nan nan nan nan nan nan nan nan nan nan nan nan nan nan nan nan nan nan nan nan nan nan nan nan nan nan nan nan nan nan nan nan nan nan nan nan nan nan nan nan nan nan nan nan nan nan nan nan nan nan nan nan nan nan nan nan nan nan nan nan nan nan nan nan nan nan nan nan nan
nan nan nan nan nan nan nan nan nan nan nan nan nan nan nan nan nan nan nan nan nan nan nan nan nan nan nan nan nan nan nan nan nan nan nan nan nan nan nan nan nan nan nan nan nan nan nan nan nan nan nan nan nan nan nan nan nan nan nan nan nan nan nan nan nan nan nan nan nan
nan nan nan nan nan nan nan nan nan nan nan nan nan nan nan nan nan nan nan nan nan nan nan nan nan nan nan nan nan nan nan nan nan nan nan nan nan nan nan nan nan nan nan nan nan nan nan nan nan nan nan nan nan nan nan nan nan nan nan nan nan nan nan nan nan nan nan nan nan
nan nan nan nan nan nan nan nan nan nan nan nan nan nan nan nan nan nan nan nan nan nan nan nan nan nan nan nan nan nan nan nan nan nan nan nan nan nan nan nan nan nan nan nan nan nan nan nan nan nan nan nan nan nan nan nan nan nan nan nan nan nan nan nan nan nan nan nan nan
nan nan nan nan nan nan nan nan nan nan nan nan nan nan nan nan nan nan nan nan nan nan nan nan nan nan nan nan nan nan nan nan nan nan nan nan nan nan nan nan nan nan nan nan nan nan nan nan nan nan nan nan nan nan nan nan nan nan nan nan nan nan nan nan nan nan nan nan nan
nan nan nan nan nan nan nan nan nan nan nan nan nan nan nan nan nan nan nan nan nan nan nan nan nan nan nan nan nan nan nan nan nan nan nan nan nan nan nan nan nan nan nan nan nan nan nan nan nan nan nan nan nan nan nan nan nan nan nan nan nan nan nan nan nan nan nan nan nan
nan nan nan nan nan nan nan nan nan nan nan nan nan nan nan nan nan nan nan nan nan nan nan nan nan nan nan nan nan nan nan nan nan nan nan nan nan nan nan nan nan nan nan nan nan nan nan nan nan nan nan nan nan nan nan nan nan nan nan nan nan nan nan nan nan nan nan nan nan
nan nan nan nan nan nan nan nan nan nan nan nan nan nan nan nan nan nan nan nan nan nan nan nan nan nan nan nan nan nan nan nan nan nan nan nan nan nan nan nan nan nan nan nan nan nan nan nan nan nan nan nan nan nan nan nan nan nan nan nan nan nan nan nan nan nan nan nan nan
nan nan nan nan nan nan nan nan nan nan nan nan nan nan nan nan nan nan nan nan nan nan nan nan nan nan nan nan nan nan nan nan nan nan nan nan nan nan nan nan nan nan nan nan nan nan nan nan nan nan nan nan nan nan nan nan nan nan nan nan nan nan nan nan nan nan nan nan nan
nan nan nan nan nan nan nan nan nan nan nan nan nan nan nan nan nan nan nan nan nan nan nan nan nan nan nan nan nan nan nan nan nan nan nan nan nan nan nan nan nan nan nan nan nan nan nan nan nan nan nan nan nan nan nan nan nan nan nan nan nan nan nan nan nan nan nan nan nan
nan nan nan nan nan nan nan nan nan nan nan nan nan nan nan nan nan nan nan nan nan nan nan nan nan nan nan nan nan nan nan nan nan nan nan nan nan nan nan nan nan nan nan nan nan nan nan nan nan nan nan nan nan nan nan nan nan nan nan nan nan nan nan nan nan nan nan nan nan
nan nan nan nan nan nan nan nan nan nan nan nan nan nan nan nan nan nan nan nan nan nan nan nan nan nan nan nan nan nan nan nan nan nan nan nan nan nan nan nan nan nan nan nan nan nan nan nan nan nan nan nan nan nan nan nan nan nan nan nan nan nan nan nan nan nan nan nan nan
nan nan nan nan nan nan nan nan nan nan nan nan nan nan nan nan nan nan nan nan nan nan nan nan nan nan nan nan nan nan nan nan nan nan nan nan nan nan nan nan nan nan nan nan nan nan nan nan nan nan nan nan nan nan nan nan nan nan nan nan nan nan nan nan nan nan nan nan nan
nan nan nan nan nan nan nan nan nan nan nan nan nan nan nan nan nan nan nan nan nan nan nan nan nan nan nan nan nan nan nan nan nan nan nan nan nan nan nan nan nan nan nan nan nan nan nan nan nan nan nan nan nan nan nan nan nan nan nan nan nan nan nan nan nan nan nan nan nan
nan nan nan nan nan nan nan nan nan nan nan nan nan nan nan nan nan nan nan nan nan nan nan nan nan nan nan nan nan nan nan nan nan nan nan nan nan nan nan nan nan nan nan nan nan nan nan nan nan nan nan nan nan nan nan nan nan nan nan nan nan nan nan nan nan nan nan nan nan
nan nan nan nan nan nan nan nan nan nan nan nan nan nan nan nan nan nan nan nan nan nan nan nan nan nan nan nan nan nan nan nan nan nan nan nan nan nan nan nan nan nan nan nan nan nan nan nan nan nan nan nan nan nan nan nan nan nan nan nan nan nan nan nan nan nan nan nan nan
nan nan nan nan nan nan nan nan nan nan nan nan nan nan nan nan nan nan nan nan nan nan nan nan nan nan nan nan nan nan nan nan nan nan nan nan nan nan nan nan nan nan nan nan nan nan nan nan nan nan nan nan nan nan nan nan nan nan nan nan nan nan nan nan nan nan nan nan nan
nan nan nan nan nan nan nan nan nan nan nan nan nan nan nan nan nan nan nan nan nan nan nan nan nan nan nan nan nan nan nan nan nan nan nan nan nan nan nan nan nan nan nan nan nan nan nan nan nan nan nan nan nan nan nan nan nan nan nan nan nan nan nan nan nan nan nan nan nan
nan nan nan nan nan nan nan nan nan nan nan nan nan nan nan nan nan nan nan nan nan nan nan nan nan nan nan nan nan nan nan nan nan nan nan nan nan nan nan nan nan nan nan nan nan nan nan nan nan nan nan nan nan nan nan nan nan nan nan nan nan nan nan nan nan nan nan nan nan
nan nan nan nan nan nan nan nan nan nan nan nan nan nan nan nan nan nan nan nan nan nan nan nan nan nan nan nan nan nan nan nan nan nan nan nan nan nan nan nan nan nan nan nan nan nan nan nan nan nan nan nan nan nan nan nan nan nan nan nan nan nan nan nan nan nan nan nan nan
nan nan nan nan nan nan nan nan nan nan nan nan nan nan nan nan nan nan nan nan nan nan nan nan nan nan nan nan nan nan nan nan nan nan nan nan nan nan nan nan nan nan nan nan nan nan nan nan nan nan nan nan nan nan nan nan nan nan nan nan nan nan nan nan nan nan nan nan nan
nan nan nan nan nan nan nan nan nan nan nan nan nan nan nan nan nan nan nan nan nan nan nan nan nan nan nan nan nan nan nan nan nan nan nan nan nan nan nan nan nan nan nan nan nan nan nan nan nan nan nan nan nan nan nan nan nan nan nan nan nan nan nan nan nan nan nan nan nan
nan nan nan nan nan nan nan nan nan nan nan nan nan nan nan nan nan nan nan nan nan nan nan nan nan nan nan nan nan nan nan nan nan nan nan nan nan nan nan nan nan nan nan nan nan nan nan nan nan nan nan nan nan nan nan nan nan nan nan nan nan nan nan nan nan nan nan nan nan
nan nan nan nan nan nan nan nan nan nan nan nan nan nan nan nan nan nan nan nan nan nan nan nan nan nan nan nan nan nan nan nan nan nan nan nan nan nan nan nan nan nan nan nan nan nan nan nan nan nan nan nan nan nan nan nan nan nan nan nan nan nan nan nan nan nan nan nan nan
nan nan nan nan nan nan nan nan nan nan nan nan nan nan nan nan nan nan nan nan nan nan nan nan nan nan nan nan nan nan nan nan nan nan nan nan nan nan nan nan nan nan nan nan nan nan nan nan nan nan nan nan nan nan nan nan nan nan nan nan nan nan nan nan nan nan nan nan nan
nan nan nan nan nan nan nan nan nan nan nan nan nan nan nan nan nan nan nan nan nan nan nan nan nan nan nan nan nan nan nan nan nan nan nan nan nan nan nan nan nan nan nan nan nan nan nan nan nan nan nan nan nan nan nan nan nan nan nan nan nan nan nan nan nan nan nan nan nan
nan nan nan nan nan nan nan nan nan nan nan nan nan nan nan nan nan nan nan nan nan nan nan nan nan nan nan nan nan nan nan nan nan nan nan nan nan nan nan nan nan nan nan nan nan nan nan nan nan nan nan nan nan nan nan nan nan nan nan nan nan nan nan nan nan nan nan nan nan
nan nan nan nan nan nan nan nan nan nan nan nan nan nan nan nan nan nan nan nan nan nan nan nan nan nan nan nan nan nan nan nan nan nan nan nan nan nan nan nan nan nan nan nan nan nan nan nan nan nan nan nan nan nan nan nan nan nan nan nan nan nan nan nan nan nan nan nan nan
nan nan nan nan nan nan nan nan nan nan nan nan nan nan nan nan nan nan nan nan nan nan nan nan nan nan nan nan nan nan nan nan nan nan nan nan nan nan nan nan nan nan nan nan nan nan nan nan nan nan nan nan nan nan nan nan nan nan nan nan nan nan nan nan nan nan nan nan nan
nan nan nan nan nan nan nan nan nan nan nan nan nan nan nan nan nan nan nan nan nan nan nan nan nan nan nan nan nan nan nan nan nan nan nan nan nan nan nan nan nan nan nan nan nan nan nan nan nan nan nan nan nan nan nan nan nan nan nan nan nan nan nan nan nan nan nan nan nan
nan nan nan nan nan nan nan nan nan nan nan nan nan nan nan nan nan nan nan nan nan nan nan nan nan nan nan nan nan nan nan nan nan nan nan nan nan nan nan nan nan nan nan nan nan nan nan nan nan nan 0 nan nan nan nan nan nan nan nan nan nan nan nan nan nan nan nan 0 6
nan nan nan nan nan nan nan nan nan nan nan nan nan nan nan nan nan nan nan nan nan nan nan nan nan nan nan nan nan nan nan nan nan nan nan nan nan nan nan nan nan nan nan nan nan nan nan nan nan nan 1 nan nan nan nan nan nan nan nan nan nan nan nan nan nan nan nan 1 14
nan nan nan nan nan nan nan nan nan nan nan nan nan nan nan nan nan nan nan nan nan nan nan nan nan nan nan nan nan nan nan nan nan nan nan nan nan nan nan nan nan nan nan nan nan nan nan nan 0 0 1 nan nan nan nan nan nan nan nan nan nan nan nan nan nan nan 1 2 1